Regional Weather Roundup
Issued by NWS Kansas City/Pleasant Hill, MO

Home | Current Version | Previous Version | Graphics & Text | Print | Product List | Glossary Off
Versions: 1 2 3 4 5 6 7 8 9 10 11 12 13 14 15 16 17 18 19 20 21 22 23 24 25 26 27 28 29 30 31 32 33 34 35 36 37 38 39 40 41 42 43 44 45 46 47 48 49 50

000
ASUS43 KEAX 230810
RWREAX

WEATHER ROUNDUP FOR EASTERN KANSAS AND NORTHWEST MISSOURI
NATIONAL WEATHER SERVICE KANSAS CITY/PLEASANT HILL MO
300 AM CDT TUE SEP 23 2014

KSZ040-057-103>105-MOZ028-029-037-043-230900-
...KANSAS CITY METROPOLITAN AREA...

CITY           SKY/WX    TMP DP  RH WIND       PRES   REMARKS
K.C. INTL      MOCLDY    55  51  86 S5        30.22F
K.C. DOWNTOWN  PTCLDY    60  54  80 CALM      30.21F
LEES SUMMIT    PTCLDY    59  50  72 S3        30.23F
OLATHE - IXD   PTCLDY    55  51  86 SE5       30.22F
OLATHE - OJC   PTCLDY    56  52  86 SE3       30.21F
LAWRENCE       PTCLDY    50  48  93 CALM      30.21F

$$

MOZ001>008-011>017-020>025-030>033-038>040-044>046-053-054-230900-
...NORTHERN AND CENTRAL MISSOURI...

CITY           SKY/WX    TMP DP  RH WIND       PRES   REMARKS
ST. JOSEPH     MOCLDY    50  48  93 CALM      30.21F
MOSBY          PTSUNNY   50  50 100 CALM      30.22F
WHITEMAN AFB   CLEAR     52  48  87 SE3       30.22F
CLINTON        CLEAR     48  48 100 CALM      30.23F
SEDALIA        CLEAR     54  49  83 SE3       30.24F
WARSAW         NOT AVBL
MARSHALL       PTCLDY    55  54  94 E6        30.24F
CHILLICOTHE      N/A     52  50  93 CALM      30.25S
MOBERLY        MOCLDY    52  45  76 SE5       30.25F HAZE
KIRKSVILLE     MOCLDY    51  32  48 SE5       30.26S

$$

MOZ041-047>049-056>058-063>065-088>090-097-230900-
...EASTERN AND SOUTHERN MISSOURI...

CITY           SKY/WX    TMP DP  RH WIND       PRES   REMARKS
ST. LOUIS INTL PTCLDY    53  48  83 CALM      30.27S
SPIRIT OF STL  CLEAR     48  47  96 CALM      30.26S
COLUMBIA       PTCLDY    56  48  74 SE7       30.24F
JEFFERSON CITY PTCLDY    49  47  93 CALM      30.25F
MEXICO         PTCLDY   N/A N/A N/A CALM      30.26F
HANNIBAL       PTCLDY    54  43  66 CALM      30.27S
ROLLA          PTCLDY    54  46  74 SE8       30.24F
LEBANON          N/A     52  48  87 CALM      30.26S FOG
OSAGE BEACH    PTCLDY    52  46  82 SE5       30.25S
SPRINGFIELD    PTCLDY    54  48  80 SE7       30.24S
BRANSON        CLEAR     50  48  93 SE3       30.25F
NEVADA         PTCLDY    52  50  93 SE3       30.24S
JOPLIN         CLEAR     53  50  89 E3        30.23S
WEST PLAINS    CLEAR     48  45  89 CALM      30.27S

$$

IAZ060-094-KSZ022-034>040-054-083-096-NEZ052-066-093-230900-
...KANSAS...SOUTHEAST NEBRASKA AND IOWA...

CITY           SKY/WX    TMP DP  RH WIND       PRES   REMARKS
TOPEKA         MOCLDY    58  53  84 E5        30.20F
MANHATTAN      MOCLDY    61  53  75 VRB3      30.17F
EMPORIA        PTCLDY    56  53  90 SE7       30.19F
CHANUTE        CLEAR     55  53  93 SE7       30.21F
WICHITA        MOCLDY    61  51  70 S12       30.17F
OMAHA          CLOUDY    62  52  69 S9        30.17F
LINCOLN        MOCLDY    59  51  75 S6        30.17S
FALLS CITY     MOCLDY    55  52  89 SE6       30.18F
LAMONI         CLEAR     56  50  80 SE7       30.23S
DES MOINES     CLEAR     54  50  86 SE7       30.22F

$$




USA.gov is the U.S. government's official web portal to all federal, state and local government web resources and services.